Home   Weather   Parkesburg   Past weeks
Flag for USA

Past Weather in Parkesburg, Pennsylvania, USA — Yesterday and Last 2 Weeks

Now
84 °F

Clear.


Feels Like: 93 °F
Forecast: 91 / 73 °F
Wind: 3 mph from West

Location: Lancaster Airport

Current Time: Jul 18, 2019 at 10:00:15 pm

Latest Report: Jul 18, 2019 at 8:53 pm


Visibility: 10 mi

Pressure: 29.85 "Hg

Humidity: 77%

Dew Point: 76 °F

Location of ParkesburgLocation

Past Weather in Parkesburg — Graph

°F

Parkesburg Temperature Yesterday

Maximum temperature yesterday: 95 °F (at 2:53 pm)
Minimum temperature yesterday: 73 °F (at 4:53 am)
Average temperature yesterday: 81 °F

High & Low Weather Summary for the Past Weeks

 TemperatureHumidityPressure
High95 °F (Jul 17, 2:53 pm)100% (Jul 5, 5:24 am)30.14 "Hg (Jul 5, 5:24 am)
Low62 °F (Jul 15, 5:53 am)43% (Jul 15, 5:53 pm)29.75 "Hg (Jul 12, 3:53 am)
Average78 °F80%29.96 "Hg
* Reported Jul 3 7:53 pm — Jul 18 7:53 pm, Parkesburg. Weather by CustomWeather, © 2019

Note: Actual official high and low records may vary slightly from our data, if they occured in-between our weather recording intervals... More about our weather records

Advertising

Parkesburg Weather History for the Previous 24 Hours

Scroll right to see more
 ConditionsComfort  
Time TempWeatherWind HumidityBarometerVisibility
7:53 pm
Thu, Jul 18
86 °FSunny.5 mph70%29.85 "Hg10 mi
6:53 pm88 °FSunny.3 mph65%29.84 "Hg10 mi
5:53 pm88 °FPassing clouds.6 mph65%29.85 "Hg10 mi
4:53 pm87 °FPassing clouds.5 mph67%29.84 "Hg10 mi
3:53 pm83 °FOvercast.7 mph85%29.86 "Hg10 mi
2:53 pm81 °FOvercast.6 mph88%29.86 "Hg10 mi
1:53 pm83 °FMore clouds than sun.7 mph79%29.87 "Hg10 mi
12:53 pm85 °FPartly sunny.7 mph77%29.87 "Hg10 mi
11:53 am83 °FMostly cloudy.3 mph79%29.88 "Hg10 mi
11:13 am83 °FBroken clouds.6 mph79%29.90 "Hg10 mi
11:04 am83 °FCloudy.5 mph79%29.90 "Hg10 mi
10:53 am83 °FBroken clouds.3 mph82%29.89 "Hg9 mi
9:53 am80 °FPartly sunny.No wind85%29.89 "Hg9 mi
8:53 am79 °FPartly sunny.No wind90%29.89 "Hg7 mi
8:27 am77 °FPartly sunny.No wind94%29.90 "Hg7 mi
8:02 am76 °FLight rain. Fog.No wind97%29.90 "Hg5 mi
6:53 am75 °FFog.No wind96%29.89 "Hg6 mi
5:53 am75 °FMostly cloudy.No wind96%29.88 "Hg8 mi
4:53 am75 °FOvercast.3 mph96%29.87 "Hg7 mi
3:53 am74 °FPassing clouds.3 mph100%29.86 "Hg7 mi
2:53 am75 °FLight rain. Mostly cloudy.No wind96%29.87 "Hg9 mi
1:53 am75 °FLight rain. Fog.5 mph96%29.88 "Hg3 mi
1:17 am74 °FPassing clouds.5 mph97%29.90 "Hg8 mi
12:53 am74 °FPassing clouds.No wind97%29.88 "Hg9 mi
11:53 pm
Wed, Jul 17
74 °FPassing clouds.No wind97%29.88 "Hg10 mi
10:53 pm74 °FClear.No wind97%29.89 "Hg10 mi
Weather by CustomWeather, © 2019

See weather overview